カタログに戻る

STARLINK-2107

運用中通信VLEO
NORAD 47723·PAYLOAD·🇺🇸 United States

打ち上げ Mar 4, 2021 から Cape Canaveral Space Force Station

Loading…

次のパス (今後24時間)

TLE

最新Source: CelesTrak SupGP

元期: Sep 15, 2026, 01:06 UTC

1 47723C 21017B   26258.04631944  .00066832  00000+0  17652-2 0  2583
2 47723  53.1605 324.2036 0003076  30.1340 353.5711 15.37840022    10

AllMySatでSTARLINK-2107をリアルタイム追跡

Download on the App Store